SL-19 DEB, 40789

Orbit data source: Space-Track

SL-19 DEB, 40789 is space debris in LEO originally from a launch on Mon, 26 Dec 1994 UTC launched from the Tyuratam Missile And Space Complex (TTMTR). Debris objects in space refer to the collection of defunct objects orbiting the Earth. Examples of debris include non-operational satellites, rocket bodies, and fragments generated from explosions, collisions, or faulty payload assembly.

Loading next visibility...
Identifier
40789, 1994-085AA
Orbit
LEO
Country
Flag of CISCIS
Related business
Manufacturer
Unknown
Mission
Spacecraft
Bus & Motor
Unknown
Mass
Unknown
Launch date (UTC)
1994-12-26 (31 years ago)
Launch vehicle
Unknown
Launch site
Tyuratam Missile And Space Complex (TTMTR)
Object type
Payload
Rocket body
Debris
Shape & HBR
Unknown shape, 0.1 m
Radar Cross Section
Medium (>0.1 m² and <1 m²)

Expand to show TLE details & history
Last TLE update: 3 days ago

TLE from 3 days ago
0 SL-19 DEB
1 40789U 94085AA  26170.74477865  .00007435  00000-0  50861-1 0  9998
2 40789  64.7257  52.6798 0443342  38.3110 324.8498 12.22902831459088
Epoch: 2026-06-19T17:52Z
TLE epoch observation values (Epoch: 2026-06-19T17:52:28.875Z)
Latitude
0.00003°
Longitude
-123.40985°
Altitude
1,298.653 km
Speed
7.335 km/s
True Right ascension
03h 30m 43s
True Declination
0° 00' 00"
Sunlit
Object was in daylight at epoch
Visualization orbit readout
Latitude
Unknown
Longitude
Unknown
Altitude
Unknown
Speed
Unknown
Apparent Right ascension
Unknown
Apparent Declination
Unknown
Sunlit
N/A
Visualization observer readout
Local Sidereal Time
21:46:58
Azimuth
Unknown
Elevation
Unknown
Doppler factor
Unknown
Orbital elements
Apogee altitude
1,931.429 km
Perigee altitude
1,225.912 km
Semi-major axis
7,956.807 km
Eccentricity
0.04433
Inclination
64.7257°
RAAN
52.6798°
Arg. of periapsis
38.311°
True anomaly
321.78787°
Mean anomaly
324.8498°
Eccentric anomaly
323.3329°
Mean motion
3.05798 °/min
Orbital period
117.72 mins
BSTAR
0.050861
Loading maneuver chart data...
Computing Atmospheric mass density...
Loading historical data...
Loading historical data...
Loading historical data...
Loading historical data...
Loading historical data...
Loading historical data...
Loading historical data...

Documentation

Showing up to 5 results
|